Hourly Weather Roundup
Issued by NWS Central Illinois

Home | Current Version | Previous Version | Text Only | Print | Product List | Glossary On
Versions: 1 2 3 4 5 6 7 8 9 10 11 12 13 14 15 16 17 18 19 20 21 22 23 24 25 26 27 28 29 30 31 32 33 34 35 36 37 38 39 40 41 42 43 44 45 46 47 48 49 50
000
NZUS43 KILX 280510
HWRILX

AREA WEATHER ROUNDUP
NATIONAL WEATHER SERVICE, LINCOLN IL
1200 AM CDT THU MAY 28 2015


CITY           SKY/WX    TMP DP  RH WIND       PRES   REMARKS
BLOOMINGTON    PTCLDY    65  56  72 NE7       30.16R
CHAMPAIGN      CLEAR     62  54  74 N6        30.15R
DANVILLE       PTCLDY    61  56  84 NE3       30.12R
DECATUR        LGT RAIN  63  58  83 CALM      30.14R
EFFINGHAM      PTCLDY    62  58  87 CALM      30.15R
FLORA          CLOUDY    68  62  80 CALM      30.14S
GALESBURG      PTCLDY    60  57  90 SE3       30.15R
JACKSONVILLE   CLEAR     64  60  86 CALM      30.14R
LACON          PTCLDY    60  57  90 CALM      30.13S
LAWRENCEVILLE  CLOUDY    69  64  84 SW5       30.14R
LITCHFIELD     CLEAR     62  57  85 CALM      30.14R
$$


CITY           SKY/WX    TMP DP  RH WIND       PRES   REMARKS
LINCOLN        PTCLDY    63  57  81 CALM      30.13R
MACOMB         PTCLDY    62  59  91 CALM      30.17R
MATTOON        NOT AVBL
MT CARMEL AP   CLOUDY    72  63  73 CALM      30.14S
OLNEY-NOBLE AP CLOUDY    68  61  77 CALM      30.14R
PARIS          PTCLDY    62  56  81 CALM      30.15R
PEORIA         PTCLDY    65  57  75 NE3       30.14R
PONTIAC        CLEAR     61  58  88 CALM      30.16R
RANTOUL        CLEAR     63  55  76 CALM      30.15R
ROBINSON       MOCLDY    68  60  76 CALM      30.14R
SPRINGFIELD    PTCLDY    63  58  83 CALM      30.14R
TAYLORVILLE    CLEAR     61  59  94 CALM      30.14R
$$

...REGIONAL REPORTS...


CITY           SKY/WX    TMP DP  RH WIND       PRES   REMARKS
CHICAGO O`HARE CLEAR     61  55  81 S6        30.13R
KANKAKEE       CLEAR     58  54  86 CALM      30.15R
MOLINE         CLEAR     60  56  86 CALM      30.13R
MOUNT VERNON   CLOUDY    66  63  88 CALM      30.14S
PITTSFIELD     CLEAR     63  60  89 CALM      30.15R
QUINCY         PTCLDY    67  57  70 SE5       30.14R
ROCKFORD       PTCLDY    63  57  81 CALM      30.14S
$$


CITY           SKY/WX    TMP DP  RH WIND       PRES   REMARKS
BURLINGTON     PTCLDY    63  60  90 CALM      30.14R
CEDAR RAPIDS   CLEAR     64  59  83 S5        30.11R
DES MOINES     MOCLDY    68  59  73 S7        30.10R
KIRKSVILLE     CLEAR     60  58  92 CALM      30.15R
OTTUMWA        PTCLDY    64  58  80 S7        30.12R
ST LOUIS       PTCLDY    70  57  63 CALM      30.14R
$$


CITY           SKY/WX    TMP DP  RH WIND       PRES   REMARKS
TERRE HAUTE    PTCLDY    64  59  83 CALM      30.14R
EVANSVILLE     MOCLDY    68  64  87 SW5       30.15R
INDIANAPOLIS   CLOUDY    67  62  84 W5        30.12R
LAFAYETTE      CLEAR     60  57  89 CALM      30.14R
MADISON        CLEAR     66  58  75 S3        30.11R
MILWAUKEE      PTCLDY    59  54  83 VRB3      30.11R
$$




USA.gov is the U.S. government's official web portal to all federal, state and local government web resources and services.